Location: Maiden_LMO
(35.5760°N, 81.2120°W)
Time: 15:23:12
(UTC-04:00)

ADEOS II - Visible Passes

Search period start: 27 August 2015 00:00
Search period end: 06 September 2015 00:00
Orbit: 800 x 803 km, 98.3° (Epoch: 26 August)

Date Brightness Start Highest point End Pass type
(mag) Time Alt. Az. Time Alt. Az. Time Alt. Az.
28 Aug 3.2 06:11:36 10° NNE 06:16:40 48° E 06:21:45 10° S visible
29 Aug 4.3 05:45:56 10° NE 05:50:16 27° E 05:54:42 10° SSE visible
30 Aug 4.9 05:21:03 10° ENE 05:23:44 15° E 05:26:43 10° SE visible
01 Sep 3.4 06:06:29 10° NNE 06:11:27 43° E 06:16:27 10° S visible
02 Sep 4.5 05:40:54 10° NE 05:45:02 24° E 05:49:18 10° SSE visible
03 Sep 5.0 05:16:17 10° ENE 05:18:28 13° E 05:20:59 10° ESE visible
04 Sep 2.5 06:27:17 10° NNE 06:32:33 72° E 06:37:48 10° S visible
05 Sep 3.6 06:01:21 10° NNE 06:06:14 39° E 06:11:09 10° SSE visible
